Weather History for Ely, NV

Change the Weather History Date:

Sunday, August 11, 2013

  Actual Average Record
Temperature  
Mean Temperature 65 °F 67 °F  
Max Temperature 85 °F 87 °F 95 °F (1940)
Min Temperature 44 °F 48 °F 37 °F (1949)
Degree Days  
Heating Degree Days 0 1  
Month to date heating degree days 3 5  
Since 1 June heating degree days 103 203  
Since 1 July heating degree days 8 28  
Cooling Degree Days 0 3  
Month to date cooling degree days 23 38  
Year to date cooling degree days 291 173  
Since 1 June cooling degree days 291 172  
Growing Degree Days 15 (Base 50)    
Moisture  
Dew Point 18 °F    
Average Humidity 21    
Maximum Humidity 34    
Minimum Humidity 8    
Precipitation  
Precipitation 0.00 in 0.03 in 0.42 in (1991)
Month to date precipitation 0.00 0.34  
Year to date precipitation 3.36 6.08  
Snow  
Snow 0.00 in 0.00 in 0.00 in (1893)
Month to date snowfall 0.0 0.0  
Since 1 June snowfall 0.0 0.1  
Since 1 July snowfall 0.0 0.0  
Snow Depth 0.00 in    
Sea Level Pressure  
Sea Level Pressure 29.91 in    
Wind  
Wind Speed 12 mph (South)    
Max Wind Speed 24 mph    
Max Gust Speed 31 mph    
Visibility 10 miles    
Events      
T = Trace of Precipitation, MM = Missing Value Source: NWS Daily Summary

Daily Weather History Graph

Daily Weather History Graph

Search for Another Location

Airport:

Trip Planner

Search our weather history database for the weather conditions in past years. The results will help you decide how hot, cold, wet, or windy it might be!

Date:

Astronomy

Aug. 11, 2013 Rise Set
Actual Time 5:48 AM PDT 7:39 PM PDT
Civil Twilight 5:19 AM PDT 8:08 PM PDT
Nautical Twilight 4:44 AM PDT 8:43 PM PDT
Astronomical Twilight 4:06 AM PDT 9:21 PM PDT
Moon 10:39 AM PDT (8/11) 9:59 PM PDT (8/11)
Length of Visible Light 14h 48m
Length of Day
13h 50m
Waxing Crescent, 23% of the Moon is Illuminated
Aug 11
Waxing Crescent
Aug 14
First Quarter
Aug 20
Full
Aug 28
Last Quarter
Sep 5
New

Hourly Weather History & Observations

Time (PDT) Temp. Windchill Dew Point Humidity Pressure Visibility Wind Dir Wind Speed Gust Speed Precip Events Conditions
12:53 AM 51.1 °F - 17.1 °F 26% 29.92 in 10.0 mi South 9.2 mph - N/A   Clear
1:53 AM 48.9 °F - 17.1 °F 28% 29.94 in 10.0 mi South 10.4 mph - N/A   Clear
2:53 AM 48.0 °F - 17.1 °F 29% 29.94 in 10.0 mi South 9.2 mph - N/A   Clear
3:53 AM 46.0 °F 41.4 °F 18.0 °F 33% 29.95 in 10.0 mi SSE 9.2 mph - N/A   Clear
4:53 AM 46.9 °F - 19.0 °F 33% 29.95 in 10.0 mi South 10.4 mph - N/A   Clear
5:53 AM 46.0 °F 40.2 °F 19.9 °F 35% 29.97 in 10.0 mi South 12.7 mph - N/A   Clear
6:53 AM 51.1 °F - 21.0 °F 31% 29.97 in 10.0 mi SSE 12.7 mph - N/A   Clear
7:53 AM 64.0 °F - 25.0 °F 23% 29.97 in 10.0 mi South 10.4 mph - N/A   Clear
8:53 AM 73.0 °F - 24.1 °F 16% 29.96 in 10.0 mi South 15.0 mph - N/A   Clear
9:53 AM 77.0 °F - 21.0 °F 12% 29.94 in 10.0 mi SSE 13.8 mph 24.2 mph N/A   Clear
10:53 AM 79.0 °F - 19.9 °F 11% 29.93 in 10.0 mi SSE 16.1 mph 25.3 mph N/A   Clear
11:53 AM 82.0 °F - 19.9 °F 10% 29.90 in 10.0 mi South 17.3 mph 24.2 mph N/A   Clear
12:53 PM 82.9 °F - 19.9 °F 10% 29.91 in 10.0 mi South 15.0 mph 31.1 mph N/A   Clear
1:53 PM 82.9 °F - 18.0 °F 9% 29.90 in 10.0 mi SW 9.2 mph 20.7 mph N/A   Clear
2:53 PM 82.9 °F - 17.1 °F 9% 29.88 in 10.0 mi SSW 11.5 mph 27.6 mph N/A   Clear
3:53 PM 84.0 °F - 17.1 °F 8% 29.87 in 10.0 mi South 19.6 mph 26.5 mph N/A   Clear
4:53 PM 84.0 °F - 19.0 °F 9% 29.84 in 10.0 mi SSW 18.4 mph 25.3 mph N/A   Clear
5:53 PM 82.0 °F - 18.0 °F 9% 29.85 in 10.0 mi SSW 16.1 mph 21.9 mph N/A   Clear
6:53 PM 79.0 °F - 15.1 °F 9% 29.84 in 10.0 mi SSW 11.5 mph - N/A   Clear
7:53 PM 64.9 °F - 17.1 °F 16% 29.86 in 10.0 mi SSW 6.9 mph - N/A   Clear
8:53 PM 62.1 °F - 15.1 °F 16% 29.86 in 10.0 mi SSE 11.5 mph - N/A   Clear
9:53 PM 62.1 °F - 15.1 °F 16% 29.86 in 10.0 mi SSW 10.4 mph - N/A   Clear
10:53 PM 62.1 °F - 15.1 °F 16% 29.87 in 10.0 mi SSW 10.4 mph - N/A   Clear
11:53 PM 57.0 °F - 16.0 °F 20% 29.88 in 10.0 mi Calm Calm - N/A   Clear